Other Public Products
Issued by NWS Grand Forks, ND

Home | Current Version | Previous Version | Text Only | Print | Product List | Glossary Off
Versions: 1 2 3 4 5 6 7 8 9 10 11 12 13 14 15 16 17 18 19 20 21 22 23 24 25 26 27 28 29 30 31 32 33 34 35 36 37 38 39 40 41 42 43 44 45 46 47 48 49 50

000
FPUS83 KFGF 281710
OPUFGF
PRAIRIE TO PINES WEATHER ROUNDUP
NATIONAL WEATHER SERVICE EASTERN NORTH DAKOTA/GRAND FORKS ND
1200 PM CDT WED SEP 28 2016

 **SATELLITE DATA USED TO AUGMENT SKY COVER AT AUTOMATED STATIONS**
 *****  WEATHER ACROSS EASTERN NORTH DAKOTA  *****

CITY           SKY/WX    TMP DP  RH WIND       PRES   REMARKS
GRAND FORKS    CLOUDY    56  45  66 VRB5      30.31R
GRAND FORKS AF CLOUDY    54  45  71 E2        30.31S
GRAND CITY NWS   N/A     54 N/A N/A N5          N/A
BUXTON         NOT AVBL
DEVILS LAKE    CLOUDY    49  44  83 CALM      30.32R
FARGO          CLOUDY    54  46  74 N6        30.29S
WAHPETON ARPT  CLOUDY    52  43  71 N3        30.29S
$$

 *****  WEATHER ACROSS CENTRAL AND WESTERN NORTH DAKOTA  *****

CITY           SKY/WX    TMP DP  RH WIND       PRES   REMARKS
JAMESTOWN      PTSUNNY   52  45  77 W3        30.30R
BISMARCK       SUNNY     60  44  55 S3        30.29R
MINOT          SUNNY     62  45  53 E6        30.27S
MINOT AFB      SUNNY     62  44  50 E7        30.26S
GARRISON         N/A     64  39  39 VRB5      30.27R
WILLISTON      SUNNY     60  49  66 NE6       30.27R
DICKINSON      SUNNY     65  48  54 CALM      30.24R
HETTINGER      SUNNY     66  47  50 VRB5      30.27R
$$

 *****  OTHER OBSERVATIONS NORTHEAST NORTH DAKOTA  *****

CITY           SKY/WX    TMP DP  RH WIND       PRES   REMARKS
WALHALLA       FAIR      54  50  87 CALM      30.32S
LANGDON        PTSUNNY   54  45  71 CALM      30.32R
CAVALIER       FAIR      54  45  71 CALM      30.32S
GRAFTON        PTSUNNY   55  46  71 CALM      30.33S
CANDO          CLOUDY    54  48  82 W3        30.33S
FORT TOTTEN    NOT AVBL
ROLLA          FAIR      55  45  67 CALM      30.31S
RUGBY          FAIR      55  46  71 E3        30.30S
 ***** THE ABOVE OBSERVATIONS ARE NON NWS ARE NOT QUALITY
        CONTROLLED AND MAY MIS-REPORT RAIN FOR SNOW...
$$

 *****  OTHER OBSERVATIONS SOUTHEAST NORTH DAKOTA *****

CITY           SKY/WX    TMP DP  RH WIND       PRES   REMARKS
COOPERSTOWN    FAIR      57  45  62 VRB3      30.31R
VALLEY CITY    PTSUNNY   54  46  76 N5        30.32R
OAKES          NOT AVBL
GWINNER        FAIR      55  46  71 N7        30.29S
SHEYENNE NWR     N/A     51  45  80 E7        29.95S
BUFFALO        NOT AVBL
WYNDMERE       NOT AVBL
 ***** THE ABOVE OBSERVATIONS ARE NON NWS ARE NOT QUALITY
       CONTROLLED AND MAY MIS-REPORT RAIN FOR SNOW...
$$

  *****  WEATHER ACROSS NORTHERN MINNESOTA  *****

CITY           SKY/WX    TMP DP  RH WIND       PRES   REMARKS
FLAG ISLAND      N/A    N/A N/A N/A CALM      30.29R
WARROAD        CLOUDY    55  48  76 CALM      30.31R
ROSEAU         CLOUDY    55  48  76 CALM      30.30R
HALLOCK        PTSUNNY   55  46  71 NW3       30.31R
THF RVR FALLS  CLOUDY    56  47  71 NE5       30.30S
HALSTAD          N/A     57  48  72 NE7         N/A
FOSSTON        CLOUDY    54  48  82 N7        30.30R
BAUDETTE       CLOUDY    53  48  83 CALM      30.31R
WASKISH        CLOUDY    54  50  87 N3        30.29R
CROOKSTON      CLOUDY    54  48  82 NE3       30.31R
$$
  *****  WEATHER ACROSS CENTRAL AND WEST MINNESOTA  *****

CITY           SKY/WX    TMP DP  RH WIND       PRES   REMARKS
BEMIDJI        CLOUDY    54  47  77 N6        30.28R
PARK RAPIDS    CLOUDY    57  44  62 N10       30.26R
WADENA         CLOUDY    54  46  76 N9        30.25S
DETROIT LAKES  PTSUNNY   54  46  76 N7        30.28S
MOORHEAD       CLOUDY    54  46  76 NE7       30.30S
FERGUS FALLS   PTSUNNY   55  46  71 N7        30.29S
ELBOW LAKE     CLOUDY    54  47  76 NW8       30.26S
MORRIS MN      PTSUNNY   57  46  67 N12       30.25R
STAPLES        CLOUDY    55  46  71 N7        30.24R
WHEATON        NOT AVBL
$$
  *****  WEATHER ELSEWHERE ACROSS MINNESOTA  *****

CITY           SKY/WX    TMP DP  RH WIND       PRES   REMARKS
DULUTH         CLOUDY    57  49  74 N9        30.21R
INTRNTL FALLS  CLOUDY    55  46  71 NE8       30.28R
ELY            CLOUDY    55  46  71 NE5       30.24R
CLOQUET        CLOUDY    57  46  67 N7        30.21R
BRAINERD       CLOUDY    55  47  74 N10       30.24R
HIBBING        CLOUDY    53  46  77 N8        30.25R
ALEXANDRIA     PTSUNNY   60  48  64 NE12      30.25R
SAINT CLOUD    CLOUDY    58  50  75 N14       30.21R
MINNEAPOLIS    CLOUDY    58  49  72 N12G23    30.17R
$$

  *****  WEATHER ACROSS SOUTH DAKOTA  *****

CITY           SKY/WX    TMP DP  RH WIND       PRES   REMARKS
SIOUX FALLS    MOSUNNY   58  46  64 NE8       30.24R
BROOKINGS      SUNNY     52  45  77 N8        30.25R
WATERTOWN      SUNNY     56  45  66 N8        30.25R
HURON          SUNNY     58  44  60 N8        30.26S
SISSETON         N/A     48  44  86 N7        30.28R
ABERDEEN       SUNNY     57  42  57 N7        30.29S
MITCHELL       MOSUNNY   54  44  69 N8        30.28R
PIERRE         SUNNY     60  42  51 VRB6      30.26R
MOBRIDGE       SUNNY     60  43  53 SE7       30.26R
RAPID CITY     SUNNY     75  45  34 N7        30.26S
$$

  *****  SOME WEATHER IN NEARBY STATES *****

CITY           SKY/WX    TMP DP  RH WIND       PRES   REMARKS
GLASGOW MT     SUNNY     62  45  53 NE8       30.29F
GREAT FALLS MT SUNNY     53  39  59 VRB5      30.29F
CHEYENNE WY    SUNNY     70  36  28 E8        30.40S
SCOTTSBLUFF NE SUNNY     72  44  36 CALM      30.31S
OMAHA NE       MOSUNNY   59  45  59 N15       30.19R
DES MOINES IA  CLOUDY    58  47  66 NW13      30.12R
DAVENPORT IA   CLOUDY    57  48  72 N13       30.00R
CHICAGO IL     LGT RAIN  56  49  77 NE9       29.91R
EAU CLAIRE WI  PTSUNNY   60  48  64 NE15      30.09R
LA CROSSE WI   LGT RAIN  61  53  75 N15G22    30.05R
$$

  *****  SOME NATIONAL WEATHER *****

CITY           SKY/WX    TMP DP  RH WIND       PRES   REMARKS
LA GUARDIA NY  CLOUDY    69  59  70 NE20      30.13R
RALEIGH NC     PTSUNNY   83  69  62 SW6       29.96F
ATLANTA GA     SUNNY     82  50  32 NW9       29.97F
NEW ORLEANS LA MOSUNNY   89  64  43 N6        30.02F HX  90
OKLAHOMA CITY  MOSUNNY   80  52  37 N9        30.06S
ALBUQUERQUE NM PTSUNNY   69  45  41 W5        30.32S
SALT LAKE CITY SUNNY     70  48  45 CALM      30.20S
LOS ANGELES CA MOSUNNY   84  51  31 VRB3      29.93S
BOISE ID       SUNNY     73  40  30 E8        30.06S
SEATTLE WA     PTSUNNY   57  50  77 NE7       30.13R
$$

*** WEATHER ACROSS MANITOBA...SASKATCHEWAN AND ONTARIO ***
                ***ONTARIO***

CITY           SKY/WX    TMP DP  RH WIND       PRES   REMARKS
GERALDTON      CLOUDY    54  50  87 N10       30.24R
THUNDER BAY    CLOUDY    59  50  72 NE10      30.21R
SIOUX LOOKOUT  PTSUNNY   54  48  82 VRB2      30.29S
TORONTO        MOSUNNY   68  52  56 SE10      30.04R
BIG TROUT LK   CLOUDY    54  50  87 W8        30.23S
PICKLE LAKE    CLOUDY    52  46  82 CALM      30.28R
DRYDEN         PTSUNNY   54  46  76 E8        30.29R
KENORA         PTSUNNY   57  48  72 E5        30.30R
$$
                *** MANITOBA***

CITY           SKY/WX    TMP DP  RH WIND       PRES   REMARKS
BRANDON        MOSUNNY   57  46  67 CALM      30.31R
DAUPHIN        SUNNY     59  46  63 NW7       30.29S
ISLAND LAKE    MOSUNNY   52  45  76 W5        30.26S
PILOT MOUND      N/A     54  45  71 E3          N/A
THE PAS        MOSUNNY   59  43  55 NW6       30.32S
THOMPSON       SUNNY     59  37  44 W12       30.22R
WINNIPEG       MOSUNNY   55  45  67 NW3       30.32R
LYNN LAKE      SUNNY     52  37  58 W10G20    30.23R
CHURCHILL      MOSUNNY   54  43  66 W22G29    29.99R
GILLAM         MOSUNNY   55  45  67 W12       30.16R
$$
                ***SASKATCHEWAN***

CITY           SKY/WX    TMP DP  RH WIND       PRES   REMARKS
ESTEVAN        NOT AVBL
KINDERSLEY     CLOUDY    48  36  61 E6        30.36F
LLOYDMINSTER   CLOUDY    46  36  66 CALM      30.37S
PRINCE ALBERT  MOSUNNY   55  43  62 VRB2      30.37S
REGINA         MOSUNNY   57  46  67 NE12G17   30.31R
YORKTON        CLOUDY    54  43  66 N8        30.31S  C1F1C2F2C3F3C4F4C5F5C6F6C7F7C8F8C9F9CaFaCbFbCcFcCdFdCe!



USA.gov is the U.S. government's official web portal to all federal, state and local government web resources and services.